• In Czech Republic
  • List of Countries
  • For 7 days
  • Water Temperature
  • Satellite Maps
  • Weather Map
  • Weather Widgets
  • user-avatar
    Login

    Hourly Weather Mauritius

    Today, 22 January, Monday

    Time Temperature Precipitation Wind Pressure Humidity
    00:00 +26°C° 0 mm 2 mps 720 mmHg 83%
    01:00 +26°C° 0 mm 2 mps 719 mmHg 84%
    02:00 +26°C° 0 mm 2 mps 719 mmHg 84%
    03:00 +25°C° 0 mm 2 mps 719 mmHg 85%
    04:00 +25°C° 0 mm 2 mps 719 mmHg 86%
    05:00 +25°C° 0 mm 2 mps 719 mmHg 85%
    06:00 +25°C° 0 mm 2 mps 719 mmHg 85%
    07:00 +26°C° 0 mm 2 mps 719 mmHg 85%
    08:00 +26°C° 0 mm 2 mps 720 mmHg 81%
    09:00 +27°C° 0 mm 2 mps 720 mmHg 78%
    10:00 +28°C° 0 mm 2 mps 720 mmHg 75%
    11:00 +28°C° 0.1 mm 2 mps 720 mmHg 75%
    12:00 +28°C° 0.1 mm 2 mps 719 mmHg 76%
    13:00 +28°C° 0.1 mm 2 mps 719 mmHg 76%
    14:00 +28°C° 0.4 mm 2 mps 719 mmHg 77%
    15:00 +27°C° 0.4 mm 2 mps 719 mmHg 77%
    16:00 +27°C° 0.4 mm 2 mps 718 mmHg 77%
    17:00 +27°C° 0.3 mm 3 mps 718 mmHg 79%
    18:00 +27°C° 0.3 mm 3 mps 719 mmHg 80%
    19:00 +26°C° 0.3 mm 3 mps 719 mmHg 81%
    20:00 +26°C° 0 mm 3 mps 719 mmHg 83%
    21:00 +26°C° 0 mm 3 mps 719 mmHg 84%
    22:00 +26°C° 0 mm 3 mps 720 mmHg 85%
    23:00 +26°C° 0 mm 3 mps 719 mmHg 85%

    Tomorrow, 23 January, Tuesday

    Time Temperature Precipitation Wind Pressure Humidity
    00:00 +26°C° 0 mm 3 mps 719 mmHg 85%
    01:00 +26°C° 0 mm 3 mps 719 mmHg 86%
    02:00 +26°C° 0 mm 3 mps 719 mmHg 86%
    03:00 +25°C° 0 mm 3 mps 718 mmHg 86%
    04:00 +25°C° 0 mm 3 mps 718 mmHg 86%
    05:00 +25°C° 0 mm 3 mps 718 mmHg 86%
    06:00 +26°C° 0 mm 3 mps 719 mmHg 85%
    07:00 +26°C° 0 mm 3 mps 719 mmHg 85%
    08:00 +26°C° 0 mm 3 mps 719 mmHg 82%
    09:00 +27°C° 0 mm 3 mps 719 mmHg 79%
    10:00 +27°C° 0 mm 3 mps 720 mmHg 77%
    11:00 +28°C° 0 mm 3 mps 719 mmHg 75%
    12:00 +28°C° 0 mm 3 mps 719 mmHg 74%
    13:00 +29°C° 0 mm 3 mps 719 mmHg 73%
    14:00 +28°C° 0.2 mm 3 mps 718 mmHg 74%
    15:00 +28°C° 0.2 mm 3 mps 718 mmHg 76%
    16:00 +27°C° 0.2 mm 3 mps 718 mmHg 78%
    17:00 +27°C° 0.2 mm 3 mps 718 mmHg 80%
    18:00 +27°C° 0.2 mm 3 mps 718 mmHg 81%
    19:00 +26°C° 0.2 mm 3 mps 718 mmHg 83%
    20:00 +26°C° 0.2 mm 4 mps 719 mmHg 84%
    21:00 +26°C° 0.2 mm 4 mps 719 mmHg 85%
    22:00 +26°C° 0.2 mm 4 mps 720 mmHg 87%
    23:00 +26°C° 0 mm 4 mps 719 mmHg 87%

    Day after tomorrow, 24 January, Wednesday

    Time Temperature Precipitation Wind Pressure Humidity
    00:00 +26°C° 0 mm 4 mps 719 mmHg 87%
    01:00 +26°C° 0 mm 4 mps 719 mmHg 87%
    02:00 +26°C° 0 mm 4 mps 718 mmHg 87%
    03:00 +25°C° 0 mm 4 mps 718 mmHg 87%
    04:00 +25°C° 0 mm 4 mps 718 mmHg 87%
    05:00 +25°C° 0 mm 4 mps 718 mmHg 86%
    06:00 +26°C° 0 mm 4 mps 719 mmHg 86%
    07:00 +26°C° 0 mm 4 mps 719 mmHg 86%
    08:00 +26°C° 0 mm 4 mps 719 mmHg 83%
    09:00 +27°C° 0 mm 4 mps 720 mmHg 80%
    10:00 +28°C° 0 mm 4 mps 720 mmHg 77%
    11:00 +28°C° 0.1 mm 4 mps 719 mmHg 76%
    12:00 +28°C° 0.1 mm 4 mps 719 mmHg 75%
    13:00 +29°C° 0.1 mm 4 mps 719 mmHg 74%
    14:00 +28°C° 0.3 mm 4 mps 718 mmHg 74%
    15:00 +28°C° 0.3 mm 4 mps 718 mmHg 75%
    16:00 +28°C° 0.3 mm 4 mps 718 mmHg 76%
    17:00 +28°C° 0.2 mm 4 mps 718 mmHg 78%
    18:00 +27°C° 0.2 mm 4 mps 718 mmHg 80%
    19:00 +27°C° 0.2 mm 4 mps 719 mmHg 82%
    20:00 +27°C° 0.7 mm 4 mps 719 mmHg 83%
    21:00 +26°C° 0.7 mm 4 mps 719 mmHg 84%
    22:00 +26°C° 0.7 mm 5 mps 720 mmHg 85%
    23:00 +26°C° 1.2 mm 5 mps 719 mmHg 85%

    25 January, Thursday

    Time Temperature Precipitation Wind Pressure Humidity
    00:00 +26°C° 1.2 mm 5 mps 719 mmHg 85%
    01:00 +26°C° 1.2 mm 5 mps 719 mmHg 85%
    02:00 +26°C° 0.5 mm 5 mps 719 mmHg 86%
    03:00 +24°C° 0.5 mm 6 mps 718 mmHg 87%
    04:00 +24°C° 0.5 mm 6 mps 718 mmHg 88%
    05:00 +24°C° 0.3 mm 6 mps 719 mmHg 87%
    06:00 +24°C° 0.3 mm 6 mps 719 mmHg 86%
    07:00 +24°C° 0.3 mm 6 mps 720 mmHg 85%
    08:00 +26°C° 0 mm 6 mps 720 mmHg 82%
    09:00 +27°C° 0 mm 5 mps 720 mmHg 78%
    10:00 +27°C° 0 mm 5 mps 720 mmHg 75%
    11:00 +28°C° 0 mm 5 mps 720 mmHg 72%
    12:00 +29°C° 0 mm 5 mps 720 mmHg 69%
    13:00 +29°C° 0 mm 4 mps 719 mmHg 66%
    14:00 +29°C° 0 mm 5 mps 719 mmHg 67%
    15:00 +29°C° 0 mm 5 mps 719 mmHg 69%
    16:00 +28°C° 0 mm 5 mps 719 mmHg 70%
    17:00 +28°C° 0 mm 5 mps 719 mmHg 74%
    18:00 +27°C° 0 mm 5 mps 719 mmHg 77%
    19:00 +26°C° 0 mm 5 mps 720 mmHg 80%
    20:00 +26°C° 0 mm 5 mps 720 mmHg 81%
    21:00 +26°C° 0 mm 5 mps 720 mmHg 82%
    22:00 +26°C° 0 mm 5 mps 721 mmHg 82%
    23:00 +26°C° 0 mm 5 mps 721 mmHg 83%

    26 January, Friday

    Time Temperature Precipitation Wind Pressure Humidity
    00:00 +25°C° 0 mm 5 mps 720 mmHg 84%
    01:00 +25°C° 0 mm 5 mps 720 mmHg 84%
    02:00 +25°C° 0 mm 5 mps 720 mmHg 84%
    03:00 +25°C° 0 mm 5 mps 720 mmHg 84%
    04:00 +25°C° 0 mm 5 mps 719 mmHg 84%
    05:00 +25°C° 0 mm 5 mps 720 mmHg 84%
    06:00 +25°C° 0 mm 5 mps 720 mmHg 84%
    07:00 +25°C° 0 mm 5 mps 721 mmHg 84%
    08:00 +26°C° 0 mm 5 mps 721 mmHg 81%
    09:00 +27°C° 0 mm 5 mps 721 mmHg 79%
    10:00 +27°C° 0 mm 5 mps 721 mmHg 76%
    11:00 +27°C° 0.1 mm 5 mps 721 mmHg 77%
    12:00 +27°C° 0.1 mm 6 mps 720 mmHg 77%
    13:00 +28°C° 0.1 mm 6 mps 720 mmHg 77%
    14:00 +28°C° 0.2 mm 6 mps 720 mmHg 77%
    15:00 +28°C° 0.2 mm 6 mps 720 mmHg 78%
    16:00 +28°C° 0.2 mm 6 mps 719 mmHg 78%
    17:00 +27°C° 0.3 mm 6 mps 720 mmHg 80%
    18:00 +27°C° 0.3 mm 6 mps 720 mmHg 82%
    19:00 +26°C° 0.3 mm 6 mps 720 mmHg 84%
    20:00 +26°C° 0.2 mm 7 mps 721 mmHg 85%
    21:00 +26°C° 0.2 mm 7 mps 721 mmHg 85%
    22:00 +26°C° 0.2 mm 7 mps 721 mmHg 86%
    23:00 +26°C° 0.1 mm 7 mps 721 mmHg 86%

    27 January, Saturday

    Time Temperature Precipitation Wind Pressure Humidity
    00:00 +26°C° 0.1 mm 7 mps 721 mmHg 86%
    01:00 +26°C° 0.1 mm 7 mps 720 mmHg 86%
    02:00 +26°C° 0 mm 7 mps 720 mmHg 86%
    03:00 +26°C° 0 mm 7 mps 720 mmHg 87%
    04:00 +26°C° 0 mm 7 mps 720 mmHg 87%
    05:00 +26°C° 0 mm 7 mps 720 mmHg 86%
    06:00 +26°C° 0 mm 7 mps 720 mmHg 86%
    07:00 +26°C° 0 mm 7 mps 721 mmHg 85%
    08:00 +26°C° 0 mm 7 mps 721 mmHg 83%
    09:00 +27°C° 0 mm 7 mps 721 mmHg 81%
    10:00 +27°C° 0 mm 7 mps 721 mmHg 79%
    11:00 +28°C° 0.1 mm 7 mps 721 mmHg 77%
    12:00 +28°C° 0.1 mm 7 mps 720 mmHg 76%
    13:00 +28°C° 0.1 mm 7 mps 720 mmHg 74%
    14:00 +28°C° 0 mm 7 mps 720 mmHg 76%
    15:00 +28°C° 0 mm 7 mps 720 mmHg 77%
    16:00 +28°C° 0 mm 7 mps 719 mmHg 78%
    17:00 +27°C° 0 mm 7 mps 720 mmHg 80%
    18:00 +27°C° 0 mm 7 mps 720 mmHg 83%
    19:00 +26°C° 0 mm 7 mps 720 mmHg 85%
    20:00 +26°C° 0 mm 7 mps 720 mmHg 85%
    21:00 +26°C° 0 mm 7 mps 721 mmHg 85%
    22:00 +26°C° 0 mm 7 mps 721 mmHg 85%
    23:00 +26°C° 0.1 mm 7 mps 721 mmHg 86%
    Show more